MUOS-2

Last updated on Thu Nov 21 2024 00:02:42 GMT+0000 (Coordinated Universal Time)

1 39206U 13036A 24325.44880851 .00000067 00000+0 00000+0 0 9998 2 39206 3.8967 42.4456 0056973 181.4059 180.6998 1.00274769 41448
UTC large
Height (km)
Speed (km/s)
/
Latitude / Longitude
Inclination (degrees)
Orbital Period (minutes)
Azimuth
Elevation
Range (km)
Doppler Factor

Next 0 passes for location: London (51.5072 / 0.1276)

Sorry there are no passes over London.